Other Public Products
Issued by NWS Grand Forks, ND

Home | Current Version | Previous Version | Graphics & Text | Print | Product List | Glossary On
Versions: 1 2 3 4 5 6 7 8 9 10 11 12 13 14 15 16 17 18 19 20 21 22 23 24 25 26 27 28 29 30 31 32 33 34 35 36 37 38 39 40 41 42 43 44 45 46 47 48 49 50
000
FPUS83 KFGF 262310
OPUFGF
PRAIRIE TO PINES WEATHER ROUNDUP
NATIONAL WEATHER SERVICE EASTERN NORTH DAKOTA/GRAND FORKS ND
600 PM CDT THU MAY 26 2016

 **SATELLITE DATA USED TO AUGMENT SKY COVER AT AUTOMATED STATIONS**
 *****  WEATHER ACROSS EASTERN NORTH DAKOTA  *****

CITY           SKY/WX    TMP DP  RH WIND       PRES   REMARKS
GRAND FORKS    MOSUNNY   72  56  57 W15       29.72F
GRAND FORKS AF MOSUNNY   71  56  59 NW13      29.73F
GRAND CITY NWS   N/A     70 N/A N/A W12         N/A
BUXTON           N/A     74  54  48 W20         N/A
DEVILS LAKE    SUNNY     65  53  65 N14       29.77F
FARGO          MOSUNNY   76  50  40 W14G25    29.73F
WAHPETON ARPT  PTCLDY    77  43  29 W17G28    29.72F
$$

 *****  WEATHER ACROSS CENTRAL AND WESTERN NORTH DAKOTA  *****

CITY           SKY/WX    TMP DP  RH WIND       PRES   REMARKS
JAMESTOWN      PTSUNNY   71  51  49 W8        29.73F
BISMARCK       MOSUNNY   71  49  45 NW15G23   29.75F
MINOT          PTSUNNY   64  53  67 N16       29.76F
MINOT AFB      PTSUNNY   64  53  67 NE17      29.76F
GARRISON         N/A     63  49  60 NE8       29.76F
WILLISTON      CLOUDY    66  51  58 N9        29.78F
DICKINSON      CLOUDY    60  41  49 W16       29.80R
HETTINGER      MOSUNNY   66  41  40 W16       29.82F
$$

 *****  OTHER OBSERVATIONS NORTHEAST NORTH DAKOTA  *****

CITY           SKY/WX    TMP DP  RH WIND       PRES   REMARKS
WALHALLA       FAIR      63  63 100 NW14G21   29.73S
LANGDON        MOCLDY    59  57  94 NW14      29.76F
CAVALIER       FAIR      64  55  72 NW13G20   29.72S
GRAFTON        MOCLDY    68  55  64 W20       29.74S
CANDO          NOT AVBL
FORT TOTTEN      N/A     68  54  61 N6        29.95S
ROLLA          CLOUDY    59  54  82 NW14      29.79F
RUGBY          FAIR      63  54  72 N10       29.77F
 ***** THE ABOVE OBSERVATIONS ARE NON NWS ARE NOT QUALITY
        CONTROLLED AND MAY MIS-REPORT RAIN FOR SNOW...
$$

 *****  OTHER OBSERVATIONS SOUTHEAST NORTH DAKOTA *****

CITY           SKY/WX    TMP DP  RH WIND       PRES   REMARKS
COOPERSTOWN    NOT AVBL
VALLEY CITY    FAIR      73  52  46 NW8G18    29.76F
OAKES            N/A    N/A N/A N/A MISG        N/A
GWINNER        FAIR      77  52  41 W12G21    29.74F
SHEYENNE NWR     N/A     78  50  36 W10       29.95S
BUFFALO          N/A     74  47  38 NW12        N/A
WYNDMERE         N/A     79  48  34 W12         N/A
 ***** THE ABOVE OBSERVATIONS ARE NON NWS ARE NOT QUALITY
       CONTROLLED AND MAY MIS-REPORT RAIN FOR SNOW...
$$

  *****  WEATHER ACROSS NORTHERN MINNESOTA  *****

CITY           SKY/WX    TMP DP  RH WIND       PRES   REMARKS
FLAG ISLAND    MOSUNNY   66  54  63 SW12      29.69F
WARROAD        MOSUNNY   70  57  64 SW12      29.71F
ROSEAU         MOSUNNY   70  57  64 SW12G21   29.71S
HALLOCK        MOSUNNY   68  55  64 W14G21    29.70F
THF RVR FALLS  PTSUNNY   68  55  64 SW13      29.75F
HALSTAD        NOT AVBL
FOSSTON        SUNNY     72  52  49 W12       29.77F
BAUDETTE       MOSUNNY   71  53  52 W13G22    29.71F
WASKISH        MOSUNNY   70  59  68 SW9       29.75S
CROOKSTON      SUNNY     72  57  60 NW12      29.74S
$$
  *****  WEATHER ACROSS CENTRAL AND WEST MINNESOTA  *****

CITY           SKY/WX    TMP DP  RH WIND       PRES   REMARKS
BEMIDJI        SUNNY     71  53  52 W13G21    29.76F
PARK RAPIDS    SUNNY     73  50  44 NW20G25   29.77F
WADENA         SUNNY     73  52  46 NW9       29.73F
DETROIT LAKES  SUNNY     70  54  56 NW9       29.78F
MOORHEAD       MOSUNNY   73  54  49 NW9G18    29.75F
FERGUS FALLS   SUNNY     75  48  38 NW16      29.69F
ELBOW LAKE     FAIR      77  49  37 NW12      29.74F
MORRIS MN      MOSUNNY   79  52  38 W13       29.74R
STAPLES        MOSUNNY   73  46  38 NW13      29.73F
WHEATON        SUNNY     79  52  38 W12       29.74F
$$
  *****  WEATHER ELSEWHERE ACROSS MINNESOTA  *****

CITY           SKY/WX    TMP DP  RH WIND       PRES   REMARKS
DULUTH         MOSUNNY   61  52  72 SE7       29.76F
INTRNTL FALLS  MOSUNNY   74  51  44 W9        29.71F
ELY            SUNNY     72  48  43 W10       29.75F
CLOQUET        MOSUNNY   63  54  72 E6        29.74F
BRAINERD       MOSUNNY   74  46  36 NW12      29.73F
HIBBING        MOSUNNY   74  54  49 S6        29.74F
ALEXANDRIA     SUNNY     76  46  34 NW12G18   29.77F
SAINT CLOUD    SUNNY     78  48  34 NW9       29.75F
MINNEAPOLIS    PTSUNNY   79  50  36 SW8       29.78R
$$

  *****  WEATHER ACROSS SOUTH DAKOTA  *****

CITY           SKY/WX    TMP DP  RH WIND       PRES   REMARKS
SIOUX FALLS    PTSUNNY   74  56  53 E5        29.79S
BROOKINGS      SUNNY     75  50  41 S6        29.78F
WATERTOWN      SUNNY     75  49  39 NW5       29.77F
HURON          SUNNY     76  53  44 SE9       29.76R
SISSETON         N/A     78  48  34 NW10      29.73F
ABERDEEN       SUNNY     78  50  37 W13       29.72F
MITCHELL       SUNNY     76  53  44 SE7       29.76S
PIERRE         MOSUNNY   74  54  49 NW14      29.72F
MOBRIDGE       SUNNY     76  49  38 W9        29.73F
RAPID CITY     MOSUNNY   67  47  48 E5        29.83F
$$

  *****  SOME WEATHER IN NEARBY STATES *****

CITY           SKY/WX    TMP DP  RH WIND       PRES   REMARKS
GLASGOW MT     CLOUDY    59  53  80 NW6       29.79F
GREAT FALLS MT CLOUDY    66  46  48 W8        29.89F
CHEYENNE WY    CLOUDY    48  42  80 CALM      29.97F
SCOTTSBLUFF NE CLOUDY    66  39  37 W12G17    29.86F
OMAHA NE       TSTM      67  59  75 SE39G49   29.82F
DES MOINES IA  TSTM      74  68  81 S15       29.85S
DAVENPORT IA   CLOUDY    83  61  47 SW5       29.83R
CHICAGO IL     PTSUNNY   82  64  54 SW6       29.81F
EAU CLAIRE WI  SUNNY     80  50  34 W10       29.76S
LA CROSSE WI   SUNNY     81  56  42 W8        29.80R
$$

  *****  SOME NATIONAL WEATHER *****

CITY           SKY/WX    TMP DP  RH WIND       PRES   REMARKS
LA GUARDIA NY  PTSUNNY   85  53  33 S14       30.02S
RALEIGH NC     MOSUNNY   86  62  44 SW7       30.07F
ATLANTA GA     MOSUNNY   85  61  44 SW7       30.07S
NEW ORLEANS LA PTSUNNY   84  70  62 S15       30.00S
OKLAHOMA CITY  MOSUNNY   83  64  52 S26G36    29.72F
ALBUQUERQUE NM PTSUNNY   71   5   7 W25G35    29.85S
SALT LAKE CITY PTSUNNY   71  36  27 NW10      29.93F
LOS ANGELES CA MOSUNNY   65  54  67 W18       30.00F
BOISE ID       PTSUNNY   73  35  25 NW13      29.94F
SEATTLE WA     PTSUNNY   60  44  55 SW13      30.17F
$$

*** WEATHER ACROSS MANITOBA...SASKATCHEWAN AND ONTARIO ***
                ***ONTARIO***

CITY           SKY/WX    TMP DP  RH WIND       PRES   REMARKS
GERALDTON      CLOUDY    61  52  72 E7        29.79F
THUNDER BAY    PTSUNNY   59  54  82 NE7       29.79F
SIOUX LOOKOUT  PTSUNNY   64  55  72 SW5       29.73F
TORONTO        PTSUNNY   70  59  68 SE9       29.92S
BIG TROUT LK   CLOUDY    72  46  40 SE5       29.75F
PICKLE LAKE    PTSUNNY   68  48  49 S8        29.74F
DRYDEN         MOSUNNY   66  55  68 SE10      29.72F
KENORA         PTSUNNY   64  55  72 S6        29.71F
$$
                *** MANITOBA***

CITY           SKY/WX    TMP DP  RH WIND       PRES   REMARKS
BRANDON        LGT RAIN  59  55  88 W12       29.77S
DAUPHIN        LGT RAIN  64  54  68 NE18G30   29.74R
ISLAND LAKE    PTSUNNY   70  54  56 SE5       29.74F
PILOT MOUND      N/A     57  54  88 NW13        N/A
THE PAS        CLOUDY    70  48  46 NE8G18    29.80S
THOMPSON       MOSUNNY   54  39  58 N17G25    29.92S
WINNIPEG       PTSUNNY   61  59  94 N10       29.67S
LYNN LAKE      MOSUNNY   50  36  57 NE18G26   30.00S
CHURCHILL      LGT SNOW  32  32 100 NE18      30.14R FOG     WCI  20
GILLAM         CLOUDY    43  37  81 N20G28    29.95R
$$
                ***SASKATCHEWAN***

CITY           SKY/WX    TMP DP  RH WIND       PRES   REMARKS
ESTEVAN        LGT RAIN  54  52  94 NE5       29.84R FOG
KINDERSLEY     PTSUNNY   68  43  40 S10       29.85F
LLOYDMINSTER   PTSUNNY   70  39  32 SW8       29.82F
PRINCE ALBERT  MOSUNNY   73  46  38 NE3       29.81F
REGINA         PTSUNNY   61  54  77 SW6       29.87S
YORKTON        SUNNY     70  46  43 N7        29.77F   C1F1C2F2C3F3C4F4C5F5C6F6C7F7C8F8C9F9CaFaCbFbCcFcCdFdCe!



USA.gov is the U.S. government's official web portal to all federal, state and local government web resources and services.